Flag for Azerbaijan Weather past 2 weeks in Ganja, Azerbaijan

Now
70 °F

Passing clouds.


Feels Like: 70 °F
Forecast: 65 / 88 °F
Wind: No wind

Location: Gyanca Airport

Current Time: Jun 2, 2015 at 8:58:22 AM

Latest Report: Jun 2, 2015 at 8:00 AM


Visibility: N/A

Pressure: 30.12 "Hg

Humidity: 73%

Dew point: 61 °F

Location of GanjaLocation

Historic Weather in Ganja — Graph

°F

Ganja temperature yesterday

Maximum temperature yesterday: 86 °F (at 2:00 PM)
Minimum temperature yesterday: 68 °F (at 5:30 AM)
Average temperature yesterday: 77 °F

Past Weeks' High & Low Weather Summary

 TemperatureHumidityPressure
High90 °F (May 29, 6:00 PM)100% (May 19, 7:00 AM)30.12 "Hg (May 19, 7:00 AM)
Low54 °F (May 19, 7:00 AM)25% (May 26, 5:00 PM)29.65 "Hg (May 28, 4:00 PM)
Average73 °F56%29.92 "Hg
* Reported May 18 7:00 AM — Jun 2 7:30 AM, Ganja, Weather by CustomWeather, © 2015

Note: Actual official high and low records may vary slightly from our data, if they occured in-between our weather recording intervals... More about our weather records

Advertising

Ganja weather history for previous 24 hours

 ConditionsComfort  
Time TempWeatherWind HumidityBarometerVisibility
7:30 AM
Tue, Jun 2
68 °FPassing clouds.No wind78%30.12 "HgN/A
7:00 AM66 °FPassing clouds.No wind83%30.09 "HgN/A
6:30 AM66 °FPassing clouds.No wind83%30.09 "HgN/A
6:00 AM66 °FPassing clouds.No wind83%30.09 "HgN/A
5:30 AM68 °FPassing clouds.3 mph83%30.07 "HgN/A
5:00 AM66 °FPassing clouds.No wind88%30.07 "HgN/A
4:30 AM68 °FPassing clouds.3 mph83%30.04 "HgN/A
4:00 AM68 °FPassing clouds.6 mph83%30.04 "HgN/A
3:30 AM68 °FPassing clouds.5 mph83%30.04 "HgN/A
3:00 AM70 °FPassing clouds.8 mph73%30.01 "HgN/A
2:30 AM70 °FPassing clouds.10 mph73%30.01 "HgN/A
2:00 AM72 °FPassing clouds.12 mph69%30.04 "HgN/A
1:30 AM72 °FThundershowers. Passing clouds.12 mph69%30.01 "HgN/A
1:00 AM75 °FThundershowers. Partly cloudy.10 mph65%30.01 "HgN/A
12:30 AM75 °FThunderstorms. Partly cloudy.2 mph65%30.01 "HgN/A
12:00 AM73 °FThunderstorms. Partly cloudy.7 mph65%30.01 "HgN/A
11:30 PM
Mon, Jun 1
77 °FThunderstorms. Partly cloudy.9 mph65%30.01 "HgN/A
11:00 PM79 °FThundershowers. Broken clouds.7 mph54%30.01 "HgN/A
10:30 PM77 °FPartly sunny.9 mph57%29.98 "HgN/A
10:00 PM79 °FPartly sunny.13 mph54%29.98 "HgN/A
9:30 PM81 °FPartly sunny.14 mph48%29.95 "HgN/A
9:00 PM81 °FPartly sunny.12 mph51%29.95 "HgN/A
8:30 PM82 °FPartly sunny.14 mph45%29.95 "HgN/A
8:00 PM82 °FScattered clouds.15 mph48%29.95 "HgN/A
7:30 PM84 °FScattered clouds.16 mph45%29.95 "HgN/A
7:00 PM84 °FScattered clouds.17 mph45%29.95 "HgN/A
6:30 PM84 °FScattered clouds.18 mph45%29.95 "HgN/A
6:00 PM84 °FScattered clouds.17 mph45%29.98 "HgN/A
5:30 PM84 °FScattered clouds.15 mph48%29.98 "HgN/A
5:00 PM86 °FScattered clouds.15 mph43%29.98 "HgN/A
4:30 PM86 °FScattered clouds.14 mph40%29.98 "HgN/A
4:00 PM84 °FScattered clouds.17 mph43%30.01 "HgN/A
3:30 PM86 °FScattered clouds.14 mph40%30.01 "HgN/A
2:00 PM86 °FScattered clouds.7 mph35%30.04 "HgN/A
1:30 PM84 °FScattered clouds.6 mph35%30.04 "HgN/A
1:00 PM82 °FScattered clouds.6 mph37%30.04 "HgN/A
12:30 PM81 °FPassing clouds.7 mph39%30.04 "HgN/A
12:00 PM81 °FPassing clouds.9 mph37%30.04 "HgN/A
11:00 AM79 °FPassing clouds.9 mph42%30.04 "HgN/A
10:30 AM77 °FPassing clouds.13 mph44%30.04 "HgN/A
10:00 AM75 °FScattered clouds.13 mph47%30.04 "HgN/A
9:30 AM73 °FScattered clouds.15 mph53%30.04 "HgN/A
9:00 AM72 °FScattered clouds.13 mph53%30.04 "HgN/A
8:30 AM72 °FScattered clouds.14 mph57%30.04 "HgN/A
8:00 AM70 °FPassing clouds.10 mph60%30.01 "HgN/A
Weather by CustomWeather, © 2015

See weather overviewHow to use our weather pages